Vero Beach, FL

10:26 PM EDT on April 20, 2018 (GMT -0400)
Vero Beach Municipal

Weather History for KVRB - February, 2014

Change the Weather History Date:

Sunday, February 16, 2014

  Actual Average Record
Temperature  
Mean Temperature 59 °F 64 °F  
Max Temperature 74 °F 75 °F 84 °F (1987)
Min Temperature 43 °F 54 °F 31 °F (1985)
Degree Days  
Heating Degree Days 6 3  
Month to date heating degree days 29 62  
Since 1 July heating degree days 230 349  
Cooling Degree Days 0 3  
Month to date cooling degree days 76 40  
Year to date cooling degree days 144 101  
Growing Degree Days 9 (Base 50)    
Moisture  
Dew Point 43 °F    
Average Humidity 56    
Maximum Humidity 89    
Minimum Humidity 23    
Precipitation  
Precipitation 0.00 in 0.10 in 0.83 in (1969)
Month to date precipitation 0.79 1.50  
Year to date precipitation 5.28 4.00  
Sea Level Pressure  
Sea Level Pressure 30.16 in    
Wind  
Wind Speed 5 mph (NNW)    
Max Wind Speed 15 mph    
Max Gust Speed 18 mph    
Visibility 10 miles    
Events      
T = Trace of Precipitation, MM = Missing Value Source: NWS Daily Summary

Daily Weather History Graph

Daily Weather History Graph

Search for Another Location

Airport or City:

Astronomy

Feb. 16, 2014 Rise Set
Actual Time 6:58 AM EST 6:13 PM EST
Civil Twilight 6:34 AM EST 6:37 PM EST
Nautical Twilight 6:06 AM EST 7:05 PM EST
Astronomical Twilight 5:39 AM EST 7:32 PM EST
Moon 7:54 PM EST (2/16) 7:38 AM EST (2/16)
Length of Visible Light 12h 03m
Length of Day
11h 15m
Full, 97% of the Moon is Illuminated
Feb 16
Full
Feb 22
Last Quarter
Mar 1
New
Mar 8
First Quarter
Mar 16
Full

Hourly Weather History & Observations

Time (EST) Temp. Windchill Dew Point Humidity Pressure Visibility Wind Dir Wind Speed Gust Speed Precip Events Conditions
12:53 AM 50.0 °F - 37.9 °F 63% 30.12 in 10.0 mi NW 5.8 mph - N/A   Clear
1:53 AM 48.0 °F - 39.0 °F 71% 30.12 in 10.0 mi NW 4.6 mph - N/A   Clear
2:53 AM 46.9 °F - 39.9 °F 77% 30.12 in 10.0 mi NW 5.8 mph - N/A   Clear
3:53 AM 45.0 °F 41.8 °F 41.0 °F 86% 30.12 in 10.0 mi WNW 5.8 mph - N/A   Clear
4:53 AM 45.0 °F 41.8 °F 41.0 °F 86% 30.12 in 10.0 mi WNW 5.8 mph - N/A   Clear
5:53 AM 46.9 °F - 43.0 °F 86% 30.15 in 10.0 mi NNW 9.2 mph - N/A   Clear
6:53 AM 46.0 °F 43.9 °F 43.0 °F 89% 30.17 in 10.0 mi NW 4.6 mph - N/A   Clear
7:53 AM 50.0 °F - 46.0 °F 86% 30.18 in 10.0 mi Calm Calm - N/A   Clear
8:53 AM 61.0 °F - 50.0 °F 67% 30.18 in 10.0 mi Calm Calm - N/A   Clear
9:53 AM 68.0 °F - 46.0 °F 45% 30.19 in 10.0 mi Calm Calm - N/A   Clear
10:53 AM 70.0 °F - 39.0 °F 32% 30.19 in 10.0 mi Calm Calm - N/A   Clear
11:53 AM 73.0 °F - 34.0 °F 24% 30.19 in 10.0 mi NNW 5.8 mph - N/A   Clear
12:53 PM 71.1 °F - 46.0 °F 41% 30.17 in 10.0 mi NE 12.7 mph - N/A   Clear
1:53 PM 71.1 °F - 46.0 °F 41% 30.15 in 10.0 mi NE 12.7 mph - N/A   Clear
2:53 PM 71.1 °F - 42.1 °F 35% 30.14 in 10.0 mi North 11.5 mph - N/A   Clear
3:53 PM 69.1 °F - 44.1 °F 40% 30.15 in 10.0 mi NNE 11.5 mph - N/A   Clear
4:53 PM 68.0 °F - 43.0 °F 40% 30.15 in 10.0 mi NNE 10.4 mph - N/A   Clear
5:53 PM 64.9 °F - 43.0 °F 45% 30.16 in 10.0 mi NE 6.9 mph - N/A   Clear
6:53 PM 59.0 °F - 45.0 °F 60% 30.17 in 10.0 mi Calm Calm - N/A   Clear
7:53 PM 52.0 °F - 44.1 °F 74% 30.18 in 10.0 mi Calm Calm - N/A   Clear
8:53 PM 50.0 °F - 45.0 °F 83% 30.19 in 10.0 mi WSW 4.6 mph - N/A   Clear
9:53 PM 52.0 °F - 46.0 °F 80% 30.20 in 10.0 mi WNW 4.6 mph - N/A   Clear
10:53 PM 46.9 °F - 43.0 °F 86% 30.20 in 10.0 mi Calm Calm - N/A   Clear
11:53 PM 48.0 °F - 44.1 °F 86% 30.19 in 10.0 mi Calm Calm - N/A   Clear